Regional Weather Roundup
Issued by NWS Goodland, KS

Home | Current Version | Previous Version | Text Only | Print | Product List | Glossary On
Versions: 1 2 3 4 5 6 7 8 9 10 11 12 13 14 15 16 17 18 19 20 21 22 23 24 25 26 27 28 29 30 31 32 33 34 35 36 37 38 39 40 41 42 43 44 45 46 47 48 49 50
000
ASUS43 KGLD 072008
RWRGLD

GOODLAND FORECAST AREA HOURLY WEATHER ROUNDUP
NATIONAL WEATHER SERVICE GOODLAND KS
100 PM MST WED DEC 07 2016

...OFFICIAL OBSERVATIONS...

CITY           SKY/WX    TMP DP  RH WIND       PRES   REMARKS
GOODLAND KS    LGT SNOW  16   9  74 N13       30.26S WCI   2
HILL CITY KS   CLOUDY    22  14  71 N10       30.34S WCI  11
IMPERIAL NEB   FLURRIES  16   8  71 N13       30.30S WCI   2
MCCOOK NEB     LGT SNOW  18  11  74 NW10      30.34R WCI   6
AKRON CO       LGT SNOW  10   3  73 N14       30.23R WCI  -6
BURLINGTON CO  LGT SNOW  15   7  70 NE14      30.23S WCI   0
LIMON CO       LGT SNOW  13   8  81 NE12      30.16R WCI  -1
$$

...UNOFFICIAL OBSERVATIONS...

CITY           SKY/WX    TMP DP  RH WIND       PRES   REMARKS
COLBY KS       LGT SNOW  18  14  86 N13       30.30S WCI   4
LENORA KS        N/A     18  32 100 MISG        N/A
NORTON KS      PTSUNNY   19  10  68 NW10      30.32S WCI   8
SHARON SPRINGS   N/A     17  14  88 NE12        N/A  WCI   4
TRENTON NEB      N/A     16  32 100 N5          N/A
KIT CARSON CO    N/A     15   8  73 MISG        N/A
YUMA CO        CLOUDY    12   3  67 NW12      30.26R WCI  -2
$$




USA.gov is the U.S. government's official web portal to all federal, state and local government web resources and services.